Location: Ernsee
(50.8780°N, 12.0389°E)
Time: 13:26:33
(UTC+00:00)

Cosmos 2278 - Pass Details

Date: 20 January 2020
Orbit: 840 x 852 km, 71.1° (Epoch: 27 February)

Event Time Altitude Azimuth Distance (km) Brightness Sun altitude
Exits shadow 04:16:46 - 192° (SSW) 2,968 6.4 -25.9°
Reaches altitude 10° 04:18:05 10° 190° (S) 2,476 6.0 -25.7°
Maximum altitude 04:23:39 58° 113° (ESE) 992 4.3 -24.8°
Drops below altitude 10° 04:29:15 10° 36° (NE) 2,491 6.5 -23.9°
Sets 04:31:44 0° 32° (NNE) 3,430 7.2 -23.5°
